Regional Weather Roundup
Issued by NWS Green Bay, WI

Home | Current Version | Previous Version | Graphics & Text | Print | Product List | Glossary Off
Versions: 1 2 3 4 5 6 7 8 9 10 11 12 13 14 15 16 17 18 19 20 21 22 23 24 25 26 27 28 29 30 31 32 33 34 35 36 37 38 39 40 41 42 43 44 45 46 47 48 49 50

000
ASUS43 KGRB 280510
RWRGRB

NORTH-CENTRAL AND NORTHEAST WISCONSIN REGIONAL WEATHER ROUNDUP
NATIONAL WEATHER SERVICE GREEN BAY WI
1100 PM CST FRI FEB 27 2015

WIZ005-009-010>012-018-019-280600-
NORTH CENTRAL WISCONSIN

CITY           SKY/WX    TMP DP  RH WIND       PRES   REMARKS
IRONWOOD       CLEAR      7  -6  56 SW10      30.40S WCI  -8
MANITOWISH WTR CLEAR      0  -9  64 SW6       30.41S WCI -11
ARBOR VITAE      N/A     -2 -10  69 CALM      30.42S
EAGLE RIVER    CLEAR      0 -11  62 CALM      30.41S
LAND O LAKES   CLEAR     -3 -11  68 CALM      30.41S
RHINELANDER      N/A     -2 -10  69 W6        30.43S WCI -14
PHILLIPS       CLEAR      3  -4  73 SW5       30.44S WCI  -7
ANTIGO         CLEAR     -1  -7  74 W5        30.46R WCI -11
TOMAHAWK       CLEAR     -7 -11  81 CALM      30.46S
MERRILL        CLEAR     -7 -12  79 CALM      30.48S
$$

WIZ013-073-280600-
NORTHEAST WISCONSIN

CITY           SKY/WX    TMP DP  RH WIND       PRES   REMARKS
IRON MOUNTAIN  CLEAR      7  -6  55 CALM      30.43S
MARINETTE      CLEAR      9  -6  52 SW6       30.52S WCI  -1
OCONTO         CLEAR      6  -6  57 SW5       30.54F WCI  -3
$$

WIZ017-030-035>037-045-280600-
CENTRAL WISCONSIN

CITY           SKY/WX    TMP DP  RH WIND       PRES   REMARKS
MEDFORD        CLEAR      1  -6  73 SW3       30.47S
WAUSAU           N/A      3  -6  66 VRB3      30.49S
MOSINEE        CLEAR      3  -6  66 W8        30.50F WCI -10
MARSHFIELD     CLEAR      2  -8  63 SW6       30.51S WCI  -9
WISC RAPIDS    CLEAR     -1  -9  68 SW6       30.56S WCI -13
STEVENS POINT  CLEAR      4  -8  57 SW3       30.53S
WAUPACA        CLEAR      6  -6  56 SW5       30.57S WCI  -3
SHAWANO        CLEAR      8  -5  57 CALM      30.54S
CLINTONVILLE   CLEAR      9  -6  52 SW3       30.54S
$$

WIZ038-039-048-051-280600-
FOX VALLEY

CITY           SKY/WX    TMP DP  RH WIND       PRES   REMARKS
NWS GREEN BAY  CLEAR     10  -4  53 SW7       30.56S WCI  -1
APPLETON       CLEAR      9  -6  52 SW7       30.55S WCI  -3
OSHKOSH        CLEAR      6  -4  63 SW8       30.57S WCI  -7
FOND DU LAC    CLEAR      6  -5  60 SW7       30.58S WCI  -6
$$

WIZ022-050-052-280600-
EAST CENTRAL WISCONSIN

CITY           SKY/WX    TMP DP  RH WIND       PRES   REMARKS
STURGEON BAY   CLEAR      9  -6  52 W7        30.55S WCI  -3
MANITOWOC      CLEAR      8  -1  66 SW10      30.58S WCI  -6
SHEBOYGAN      CLEAR      5  -5  63 W9        30.58S WCI  -9
$$

LMZ563-521-522-541>543-280600-
LAKESHORE

STATION/POSITION TIME  TEMP    WIND        PRES    VSBY  WAVE
                       AIR SEA DIR/SP/G                  HT/PER
                 (UTC) (F)     (DEG/KT/KT) (MB)    (MI)  (FT/S)
SHEBOYGAN LKSHOR 0500    9     240/ 11/ 13 1037.8S
KEWAUNEE LKSHORE 0500    9     250/  6/  9 1033.8S
NORTHPORT PIER   0500   12     250/  6/ 12 1033.2S
CHAMBERS ISLAND  0500   10     210/  8/ 11 1033.5R
MENOMINEE LKSHOR 0500   10     210/  7     1034.2F
$$


USA.gov is the U.S. government's official web portal to all federal, state and local government web resources and services.